EDT,Max TemperatureF,Mean TemperatureF,Min TemperatureF,Max Dew PointF,MeanDew PointF,Min DewpointF,Max Humidity, Mean Humidity, Min Humidity, Max Sea Level PressureIn, Mean Sea Level PressureIn, Min Sea Level PressureIn, Max VisibilityMiles, Mean VisibilityMiles, Min VisibilityMiles, Max Wind SpeedMPH, Mean Wind SpeedMPH, Max Gust SpeedMPH,PrecipitationIn, CloudCover, Events, WindDirDegrees
2014-3-1,46,32,19,32,21,10,87,53,32,30.16,30.13,30.08,20,11,9,17,6,24,0.00,5,,223
2014-3-2,32,28,21,32,24,12,100,86,68,30.13,30.10,30.07,10,6,0,12,7,,0.00,8,Snow,348
2014-3-3,21,16,10,1,-1,-4,67,53,42,30.35,30.28,30.23,20,19,10,12,8,18,0.00,3,,13
2014-3-4,33,19,5,14,7,1,85,53,32,30.35,30.23,30.14,20,15,8,0,0,,0.00,5,,-1
2014-3-5,33,24,14,16,11,9,93,51,35,30.36,30.27,30.18,20,12,9,14,4,,0.00,6,,12
2014-3-6,35,28,21,18,12,7,55,50,47,30.43,30.33,30.24,20,19,15,17,11,25,0.00,4,,111
2014-3-7,51,40,28,32,28,19,93,60,47,30.13,30.03,29.95,20,20,20,9,5,,0.00,0,,72
2014-3-8,51,42,33,36,34,32,100,74,50,29.99,29.96,29.93,10,8,2,16,12,28,0.00,6,Rain,272
2014-3-9,37,30,23,23,21,19,93,68,52,30.21,30.12,30.01,15,12,10,14,10,18,0.00,5,,281
2014-3-10,57,47,37,34,32,28,70,56,41,29.86,29.76,29.65,15,13,10,22,12,33,0.00,4,,227
2014-3-11,66,52,39,41,38,34,87,53,37,29.73,29.68,29.62,20,13,10,17,10,25,0.00,3,,230
2014-3-12,57,42,26,55,40,19,100,93,74,29.65,29.30,29.07,10,5,1,22,6,39,0.00,8,Rain-Snow,260
2014-3-13,26,18,10,12,6,0,67,58,43,30.13,30.02,29.88,20,15,10,17,12,29,0.00,3,,280
2014-3-14,59,46,32,30,24,14,48,40,34,30.06,29.91,29.76,20,14,10,24,17,36,0.00,5,,218
2014-3-15,48,44,37,37,30,27,81,60,43,30.10,29.96,29.82,20,15,8,29,15,37,0.00,4,,284
2014-3-16,32,29,26,19,13,7,74,51,37,30.22,30.16,30.04,20,15,10,14,10,,0.00,5,,30
2014-3-17,33,28,23,23,20,14,86,66,59,29.99,29.94,29.91,10,9,2,14,11,,0.00,8,Snow,86
2014-3-18,46,39,32,32,27,23,75,62,52,30.09,30.05,30.00,20,14,10,17,11,23,0.00,2,,132
2014-3-19,57,49,41,48,39,32,100,68,48,29.98,29.87,29.78,20,12,2,17,11,23,0.00,5,Rain,167
2014-3-20,39,38,37,36,30,27,87,72,65,30.01,29.96,29.88,15,10,8,25,14,37,0.00,8,Rain,268
2014-3-21,44,35,26,34,32,25,100,87,66,30.12,30.05,29.93,15,8,1,14,5,,0.00,4,Snow,240
2014-3-22,53,46,37,36,31,28,70,51,38,30.09,29.94,29.74,20,14,10,17,13,29,0.00,4,,293
2014-3-23,33,30,23,28,17,9,87,57,38,30.25,30.16,30.10,20,16,10,17,10,28,0.00,6,,325
2014-3-24,32,24,17,10,7,3,68,45,34,30.30,30.21,30.10,20,12,10,17,8,20,0.00,3,,288
2014-3-25,37,30,23,19,16,14,80,53,38,30.00,29.92,29.85,20,11,5,16,4,,0.00,4,Snow,255
2014-3-26,30,24,19,14,8,5,80,52,37,30.28,30.22,30.07,20,15,5,14,12,25,0.00,5,Snow,308
2014-3-27,53,35,17,23,15,5,86,41,14,30.28,30.14,29.98,20,15,10,12,4,21,0.00,5,,184
2014-3-28,62,56,48,48,43,32,66,58,44,30.11,29.94,29.87,20,15,10,26,19,38,0.00,6,Rain,236
2014-3-29,57,45,33,48,43,34,100,91,67,30.06,29.84,29.68,15,8,3,14,9,23,0.00,7,Rain,47
2014-3-30,44,38,32,36,32,27,100,81,61,30.04,29.93,29.81,10,8,2,18,12,29,0.00,6,Snow,342
2014-3-31,59,42,26,30,27,23,86,52,27,30.22,30.16,30.11,20,15,10,14,6,,0.00,2,,238